Weather History for 94287 - March, 2013

Change the Weather History Date:

Wednesday, March 6, 2013

  Actual Average Record
Temperature  
Mean Temperature 82 °F -  
Max Temperature 87 °F 86 °F - ()
Min Temperature 77 °F 73 °F - ()
Cooling Degree Days 17    
Growing Degree Days 32 (Base 50)    
Moisture  
Dew Point 74 °F    
Average Humidity 77    
Maximum Humidity 94    
Minimum Humidity 60    
Precipitation  
Precipitation 0.04 in 0.53 in - ()
Sea Level Pressure  
Sea Level Pressure 29.72 in    
Wind  
Wind Speed 8 mph ()    
Max Wind Speed 18 mph    
Max Gust Speed -    
Visibility 7.3 miles    
Events Rain    
T = Trace of Precipitation, MM = Missing Value Source: Averaged Metar Reports

Daily Weather History Graph

Daily Weather History Graph

Search for Another Location

Airport or City:

Trip Planner

Search our weather history database for the weather conditions in past years. The results will help you decide how hot, cold, wet, or windy it might be!

Date:

Astronomy

Mar. 06, 2013 Rise Set
Actual Time 6:17 AM AEST 6:38 PM AEST
Civil Twilight 5:56 AM AEST 7:00 PM AEST
Nautical Twilight 5:30 AM AEST 7:25 PM AEST
Astronomical Twilight 5:05 AM AEST 7:51 PM AEST
Moon 12:33 AM AEST (3/6) 1:54 PM AEST (3/6)
Length of Visible Light 13h 04m
Length of Day
12h 20m
Last Quarter, 37% of the Moon is Illuminated
Mar 6
Last Quarter
Mar 12
New
Mar 20
First Quarter
Mar 27
Full
Apr 3
Last Quarter

Hourly Weather History & Observations

Time (AEST) Temp. Heat Index Dew Point Humidity Pressure Visibility Wind Dir Wind Speed Gust Speed Precip Events Conditions
12:00 AM 78 °F - 75 °F 88% 29.71 in - West 4.6 mph - -  
12:00 AM 77.0 °F - 75.2 °F 94% 29.71 in 6.2 mi West 4.6 mph - N/A   Mostly Cloudy
12:30 AM 78.8 °F - 73.4 °F 83% 29.71 in 6.2 mi West 6.9 mph - N/A   Mostly Cloudy
1:00 AM 78 °F - 76 °F 90% 29.71 in - South 2.3 mph - -  
1:00 AM 78.8 °F - 75.2 °F 89% 29.68 in 6.2 mi South 2.3 mph - N/A   Mostly Cloudy
1:30 AM 78.8 °F - 75.2 °F 89% 29.68 in 6.2 mi SSE 10.4 mph - N/A   Mostly Cloudy
2:00 AM 80.6 °F 85.4 °F 73.4 °F 79% 29.68 in 6.2 mi South 4.6 mph - N/A   Scattered Clouds
2:30 AM 80.6 °F 85.4 °F 73.4 °F 79% 29.68 in 6.2 mi South 4.6 mph - N/A   Mostly Cloudy
3:00 AM 79 °F - 74 °F 80% 29.68 in - South 5.8 mph - -  
3:00 AM 78.8 °F - 73.4 °F 83% 29.68 in 6.2 mi South 5.8 mph - N/A   Mostly Cloudy
3:30 AM 78.8 °F - 73.4 °F 83% 29.65 in 6.2 mi South 11.5 mph - N/A   Mostly Cloudy
4:00 AM 79 °F - 74 °F 79% 29.69 in - South 10.4 mph - -  
4:00 AM 78.8 °F - 73.4 °F 83% 29.68 in 6.2 mi South 10.4 mph - N/A   Scattered Clouds
4:30 AM 78.8 °F - 73.4 °F 83% 29.68 in 6.2 mi South 9.2 mph - N/A   Mostly Cloudy
5:00 AM 78.8 °F - 73.4 °F 83% 29.68 in 6.2 mi South 8.1 mph - N/A   Scattered Clouds
5:30 AM 78.8 °F - 73.4 °F 83% 29.68 in 6.2 mi South 6.9 mph - N/A   Scattered Clouds
6:00 AM 79 °F - 74 °F 81% 29.71 in 19 mi South 8.1 mph - -   Partly Cloudy
6:00 AM 78.8 °F - 73.4 °F 83% 29.71 in 6.2 mi South 8.1 mph - N/A   Scattered Clouds
6:30 AM 78.8 °F - 75.2 °F 89% 29.71 in 5.0 mi South 6.9 mph - N/A Rain Light Rain Showers
7:00 AM 79 °F - 74 °F 81% 29.74 in - South 6.9 mph - -  
7:00 AM 78.8 °F - 73.4 °F 83% 29.71 in 5.0 mi South 6.9 mph - N/A   Scattered Clouds
7:30 AM 78.8 °F - 75.2 °F 89% 29.74 in 5.0 mi South 8.1 mph - N/A Rain Light Rain Showers
8:00 AM 80.6 °F 86.2 °F 75.2 °F 84% 29.74 in 6.2 mi South 8.1 mph - N/A   Scattered Clouds
8:30 AM 82.4 °F 90.9 °F 77.0 °F 84% 29.74 in 6.2 mi SSE 6.9 mph - N/A   Scattered Clouds
9:00 AM 83 °F - 76 °F 75% 29.77 in 19 mi SE 8.1 mph - -   Partly Cloudy
9:00 AM 84.2 °F 94.1 °F 77.0 °F 79% 29.77 in 6.2 mi SE 8.1 mph - N/A   Scattered Clouds
9:30 AM 84.2 °F 92.3 °F 75.2 °F 74% 29.77 in 6.2 mi South 6.9 mph - N/A   Scattered Clouds
10:00 AM 85 °F - 75 °F 65% 29.78 in - SSE 11.5 mph - -  
10:00 AM 86.0 °F 95.1 °F 75.2 °F 70% 29.77 in 6.2 mi SSE 11.5 mph - N/A   Scattered Clouds
10:30 AM 86.0 °F 95.1 °F 75.2 °F 70% 29.77 in 6.2 mi SSE 12.7 mph - N/A   Mostly Cloudy
11:00 AM 84.2 °F 92.3 °F 75.2 °F 74% 29.74 in 6.2 mi South 12.7 mph - N/A   Scattered Clouds
11:30 AM 87.8 °F 99.7 °F 77.0 °F 70% 29.74 in 6.2 mi SSE 13.8 mph - N/A   Scattered Clouds
12:00 PM 86 °F - 74 °F 61% 29.74 in 16 mi South 13.8 mph - -   Mostly Cloudy
12:00 PM 86.0 °F 95.1 °F 75.2 °F 70% 29.74 in 6.2 mi South 13.8 mph - N/A   Mostly Cloudy
12:30 PM 87.8 °F 97.6 °F 75.2 °F 66% 29.71 in 6.2 mi SSE 12.7 mph - N/A   Mostly Cloudy
1:00 PM 87 °F - 75 °F 60% 29.71 in - ESE 12.7 mph - -  
1:00 PM 87.8 °F 97.6 °F 75.2 °F 66% 29.71 in 6.2 mi ESE 12.7 mph - N/A   Mostly Cloudy
1:30 PM 87.8 °F 95.6 °F 73.4 °F 62% 29.68 in 6.2 mi SE 13.8 mph - N/A   Mostly Cloudy
2:00 PM 87.8 °F 97.6 °F 75.2 °F 66% 29.68 in 6.2 mi SSE 12.7 mph - N/A   Mostly Cloudy
2:30 PM 87.8 °F 97.6 °F 75.2 °F 66% 29.65 in 6.2 mi SE 17.3 mph - N/A   Mostly Cloudy
3:00 PM 86 °F - 75 °F 63% 29.66 in 16 mi SE 18.4 mph - - Rain Light Rain Showers
3:00 PM 86.0 °F 95.1 °F 75.2 °F 70% 29.65 in 6.2 mi SE 18.4 mph - N/A   Mostly Cloudy
3:30 PM 86.0 °F 95.1 °F 75.2 °F 70% 29.65 in 6.2 mi SE 18.4 mph - N/A   Mostly Cloudy
4:00 PM 85 °F - 75 °F 64% 29.67 in - SE 17.3 mph - -  
4:00 PM 84.2 °F 92.3 °F 75.2 °F 74% 29.65 in 6.2 mi SE 17.3 mph - N/A   Mostly Cloudy
4:30 PM 82.4 °F 89.5 °F 75.2 °F 79% 29.65 in 6.2 mi South 9.2 mph - N/A   Mostly Cloudy
5:00 PM 82.4 °F 89.5 °F 75.2 °F 79% 29.65 in 6.2 mi South 11.5 mph - N/A   Mostly Cloudy
5:30 PM 82.4 °F 89.5 °F 75.2 °F 79% 29.68 in 6.2 mi South 6.9 mph - N/A   Mostly Cloudy
6:00 PM 83 °F - 74 °F 68% 29.72 in 16 mi SSE 11.5 mph - -   Partly Cloudy
6:00 PM 82.4 °F 88.2 °F 73.4 °F 74% 29.71 in 6.2 mi SSE 11.5 mph - N/A   Mostly Cloudy
6:30 PM 82.4 °F 88.2 °F 73.4 °F 74% 29.71 in 6.2 mi SSE 13.8 mph - N/A   Mostly Cloudy
7:00 PM 82 °F - 74 °F 71% 29.75 in - SSE 12.7 mph - -  
7:00 PM 82.4 °F 88.2 °F 73.4 °F 74% 29.74 in 6.2 mi SSE 12.7 mph - N/A   Mostly Cloudy
7:30 PM 80.6 °F 86.2 °F 75.2 °F 84% 29.74 in 6.2 mi SSE 12.7 mph - N/A   Mostly Cloudy
8:00 PM 80.6 °F 85.4 °F 73.4 °F 79% 29.74 in 6.2 mi SSE 12.7 mph - N/A   Mostly Cloudy
8:30 PM 80.6 °F 85.4 °F 73.4 °F 79% 29.77 in 6.2 mi South 9.2 mph - N/A   Mostly Cloudy
9:00 PM 80 °F - 73 °F 75% 29.77 in 16 mi South 11.5 mph - -   Partly Cloudy
9:00 PM 80.6 °F 85.4 °F 73.4 °F 79% 29.77 in 6.2 mi South 11.5 mph - N/A   Mostly Cloudy
9:30 PM 80.6 °F 84.6 °F 71.6 °F 74% 29.77 in 6.2 mi South 10.4 mph - N/A   Mostly Cloudy
10:00 PM 80 °F - 72 °F 72% 29.80 in - South 6.9 mph - -  
10:00 PM 80.6 °F 85.4 °F 73.4 °F 79% 29.77 in 6.2 mi South 6.9 mph - N/A   Mostly Cloudy
10:30 PM 80.6 °F 85.4 °F 73.4 °F 79% 29.77 in 6.2 mi South 11.5 mph - N/A   Mostly Cloudy
11:00 PM 80.6 °F 85.4 °F 73.4 °F 79% 29.77 in 6.2 mi South 10.4 mph - N/A Rain Light Rain Showers
11:30 PM 78.8 °F - 73.4 °F 83% 29.77 in 6.2 mi South 5.8 mph - N/A   Mostly Cloudy